Regional Weather Roundup
Issued by NWS

Home | Current Version | Previous Version | Graphics & Text | Print | Product List | Glossary On
Versions: 1 2 3 4 5 6 7 8 9 10 11 12 13 14 15 16 17 18 19 20 21 22 23 24 25 26 27 28 29 30 31 32 33 34 35 36 37 38 39 40 41 42 43 44 45 46 47 48 49 50
043
ASUS43 KFSD 162302
RWRSD

WEATHER ROUNDUP FOR SOUTH DAKOTA
NATIONAL WEATHER SERVICE SIOUX FALLS SD
500 PM CST SAT DEC 16 2017

NOTE: "FAIR" INDICATES FEW OR NO CLOUDS BELOW 12,000 FEET WITH NO
SIGNIFICANT WEATHER AND/OR OBSTRUCTIONS TO VISIBILITY.


SDZ001>005-009-010-012>017-170000-
NORTHWEST AND NORTH CENTRAL SOUTH DAKOTA

CITY           SKY/WX    TMP DP  RH WIND       PRES   REMARKS
BUFFALO          N/A     34  23  64 N10       29.92R WCI  26
FAITH            N/A     35  27  72 N9        29.97R WCI  28
MOBRIDGE       CLOUDY    38  30  73 N7        29.94R
$$

SDZ012>016-024>037-041>051-057-063-072>074-170000-
SOUTHWEST AND SOUTH CENTRAL SOUTH DAKOTA

CITY           SKY/WX    TMP DP  RH WIND       PRES   REMARKS
RAPID CTY ARPT CLOUDY    34  27  75 NW10      29.96R WCI  26
PIERRE         CLOUDY    38  31  76 N8        29.97R
CUSTER         CLOUDY    28  23  81 NE6       29.88R WCI  22
ELLSWORTH AFB  CLOUDY    35  29  79 N13       29.95  WCI  26
PHILIP         CLOUDY    38  30  73 N8        29.98R
PINE RIDGE     CLOUDY    36  27  69 NE7       29.94R
SPEARFISH      MIX PCPN  32  27  80 W3        29.97R
WINNER         MOCLDY    40  33  76 N7        29.96R
$$

SDZ004>011-016>023-039-040-170000-
NORTHEAST SOUTH DAKOTA

CITY           SKY/WX    TMP DP  RH WIND       PRES   REMARKS
ABERDEEN       CLOUDY    37  30  75 NE3       29.97R
WATERTOWN      CLOUDY    35  32  88 N8        29.95R WCI  29
BROOKINGS      CLOUDY    36  31  82 N6        29.95R
SISSETON         N/A     35  31  85 N9        29.97R WCI  28
$$

SDZ017-020-022-023-036>040-048>070-170000-
SOUTHEAST SOUTH DAKOTA

CITY           SKY/WX    TMP DP  RH WIND       PRES   REMARKS
SIOUX FALLS    MOCLDY    39  32  76 N10       29.94R
HURON          CLOUDY    40  33  76 NE6       29.96R
CHAMBERLAIN    CLOUDY    41  35  79 N6        29.96R
MITCHELL       CLOUDY    40  35  83 NE8       29.96R
YANKTON        CLOUDY    40  33  76 N8        29.94R
$$

ABBREVIATIONS USED IN REMARKS
   TC - TEMPERATURE IN CELSIUS
  WCI - WIND CHILL INDEX
   HX - HEAT INDEX
  VSB - VISIBILITY





USA.gov is the U.S. government's official web portal to all federal, state and local government web resources and services.